Location: Unspecified
(0.0000°N, 0.0000°E)
Time: 01:02:12
(UTC+01:00)

NOAA 12 - Visible Passes

Search period start: 25 March 2017 00:00
Search period end: 04 April 2017 01:00
Orbit: 795 x 816 km, 98.6° (Epoch: 23 March)

Date Brightness Start Highest point End Pass type
(mag) Time Alt. Az. Time Alt. Az. Time Alt. Az.
25 Mar 4.1 19:53:12 10° SSE 19:58:31 68° ENE 20:03:47 10° N visible
26 Mar 4.7 20:28:50 10° SE 20:33:37 34° ENE 20:38:21 10° NNE visible
26 Mar 6.9 22:10:04 10° SW 22:13:06 15° WSW 22:16:08 10° WNW visible
27 Mar 5.9 21:43:36 10° SSW 21:48:13 30° WSW 21:52:50 10° NW visible
28 Mar 4.6 21:18:04 10° S 21:23:19 61° WSW 21:28:33 10° NNW visible
29 Mar 4.1 20:53:07 10° SSE 20:58:25 68° ENE 21:03:40 10° N visible
30 Mar 4.7 20:28:44 10° SE 20:33:30 34° ENE 20:38:14 10° NNE visible
30 Mar 6.9 22:09:58 10° SW 22:13:00 15° WSW 22:16:01 10° WNW visible
31 Mar 5.9 21:43:30 10° SSW 21:48:07 30° WSW 21:52:44 10° NW visible
01 Apr 4.6 21:17:58 10° S 21:23:13 61° WSW 21:28:27 10° NNW visible
02 Apr 4.1 20:53:01 10° SSE 20:58:19 68° ENE 21:03:34 10° N visible
03 Apr 4.8 20:28:38 10° SE 20:33:24 34° ENE 20:38:08 10° NNE visible
03 Apr 6.9 22:09:53 10° SW 22:12:54 15° WSW 22:15:55 10° WNW visible
